Regional Weather Roundup
Issued by NWS

Home | Current Version | Previous Version | Graphics & Text | Print | Product List | Glossary On
Versions: 1 2 3 4 5 6 7 8 9 10 11 12 13 14 15 16 17 18 19 20 21 22 23 24 25 26 27 28 29 30 31 32 33 34 35 36 37 38 39 40 41 42 43 44 45 46 47 48 49 50
000
ASUS43 KIND 281609
RWRIN

WEATHER ROUNDUP FOR INDIANA
NATIONAL WEATHER SERVICE INDIANAPOLIS IN
1200 PM EDT WED SEP 28 2016

NOTE: "FAIR" INDICATES FEW OR NO CLOUDS BELOW 12,000 FEET WITH NO
SIGNIFICANT WEATHER AND/OR OBSTRUCTIONS TO VISIBILITY.

* - STATION DOES NOT REPORT WEATHER SUCH AS PRECIPITATION OR FOG.

+ - STATION NOT QUALITY CONTROLLED BY THE NATIONAL WEATHER SERVICE.
    USE DATA WITH CAUTION...ESPECIALLY DEWPOINT AND RELATIVE
    HUMIDITY OBSERVATIONS.

INZ001>003-010>013-019-020-281700-
NORTHWEST INDIANA

CITY           SKY/WX    TMP DP  RH WIND       PRES   REMARKS
GARY /AIRPORT/ RAIN      55  54  94 NW22      29.88R
KNOX *+        CLOUDY    55  32  41 N7        29.84R
LA PORTE +     CLOUDY    57  53  87 NE9       29.86R
MICHIGAN CITY+ CLOUDY    55  48  76 MISG      29.86R
MONTICELLO +   CLOUDY    56  46  69 NW6       29.84R
RENSSELAER +   CLOUDY    59  50  72 N8        29.86R
VALPARAISO     CLOUDY    58  49  72 N8        29.86R

$$

LMZ046-743>745-281700-
SOUTHERN LAKE MICHIGAN

STATION/POSITION TIME  TEMP    WIND        PRES    WAVE
                       AIR SEA DIR/SP/G            HT
                 (UTC) (F)     (DEG/KT/KT) (MB)    (FT)
BURNS HARBOR     1540   59      40/ 20/ 23 1011.2R
MICHIGAN CITY    1540   57      20/ 21/ 24   N/A
5NW MICH CITY    1550   59 66   40/ 17/ 25   N/A     5

$$

INZ004-005-014>016-021>024-281700-
NORTH CENTRAL INDIANA

CITY           SKY/WX    TMP DP  RH WIND       PRES   REMARKS
ELKHART        CLOUDY   N/A N/A N/A NE8       29.85R
GOSHEN         CLOUDY    60  48  64 CALM      29.84S
LOGANSPORT +   CLOUDY    61  48  63 E8        29.83S
PERU/GRISSOM   MOSUNNY   57  54  88 E8        29.82R
ROCHESTER +    CLOUDY    59  54  82 SE8       29.84R
SOUTH BEND     CLOUDY    55  49  80 VRB5      29.87R
WARSAW +       CLOUDY    59  45  58 E7        29.85R

$$

INZ006>009-017-018-025>027-281700-
NORTHEAST INDIANA

CITY           SKY/WX    TMP DP  RH WIND       PRES   REMARKS
ANGOLA *+        N/A     61  52  72 SE7       29.85R
AUBURN +       CLOUDY    59  46  63 E6        29.86S
FORT WAYNE     LGT RAIN  56  52  86 SE7       29.86R
HUNTINGTON +   DRIZZLE   56  55  95 E6        29.84R
KENDALLVILLE + LGT RAIN  56  51  84 SE5       29.85S

$$

INZ028-029-035-036-043>045-051>053-281700-
WEST CENTRAL INDIANA

CITY           SKY/WX    TMP DP  RH WIND       PRES   REMARKS
CRAWFORDSVL +  MOSUNNY   58  55  89 NW3       29.83S
GREENCASTLE +  CLOUDY    59  59 100 CALM      29.83R
LAFAYETTE      PTSUNNY   62  52  69 NW15      29.83R
TERRE HAUTE    CLOUDY    65  54  67 N6        29.82R

$$

INZ030>032-037>040-046>048-054>057-064-065-281700-
CENTRAL INDIANA

CITY           SKY/WX    TMP DP  RH WIND       PRES   REMARKS
ANDERSON       PTSUNNY   55  55 100 CALM      29.82F
COLUMBUS       RAIN      57  57 100 CALM      29.83R FOG
FISHERS *+     CLOUDY    55  55 100 SE8       29.81F
FRANKFORT +    CLOUDY    64  55  75 NE6       29.84R
GREENWOOD *+   CLOUDY    61  57  88 CALM      29.84R
INDIANAPOLIS   LGT RAIN  59  56  89 SE10      29.81F
-EAGLE CREEK   LGT RAIN  60  56  86 SE5       29.80S
MARION +       CLOUDY    58  55  89 E7        29.84R FOG
MT COMFORT *+  CLOUDY    57  54  88 CALM      29.83S
SHELBYVILLE    CLOUDY    60  56  86 VRB5      29.83R THUNDER
ZIONSVILLE +   MOSUNNY   57  54  91 W5        29.82R

$$

INZ033-034-041-042-049-050-058-059-281700-
EAST CENTRAL INDIANA

CITY           SKY/WX    TMP DP  RH WIND       PRES   REMARKS
MUNCIE         LGT RAIN  58  55  90 S3        29.84S FOG

$$

INZ060-061-067>069-081>083-085>088-281700-
SOUTHWEST INDIANA

CITY           SKY/WX    TMP DP  RH WIND       PRES   REMARKS
EVANSVILLE     RAIN      60  56  86 SW5       29.83R FOG
HUNTINGBURG *+   N/A     59  54  82 S3        29.83R
WASHINGTON +   DRIZZLE   61  58  87 MISG      29.81S

$$

INZ062-063-066-070>080-084-089>092-281700-
SOUTH CENTRAL AND SOUTHEAST INDIANA

CITY           SKY/WX    TMP DP  RH WIND       PRES   REMARKS
BLOOMINGTON    LGT RAIN  59  56  89 CALM      29.80F
MADISON *+     CLOUDY    64  50  59 S3        29.84S
NORTH VERNON + LGT RAIN  63  59  88 SW3       29.83R
SEYMOUR +      CLOUDY    63  55  77 NW7       29.83R

$$





USA.gov is the U.S. government's official web portal to all federal, state and local government web resources and services.